TimeEDT,TemperatureF,Dew PointF,Humidity,Sea Level PressureIn,VisibilityMPH,Wind Direction,Wind SpeedMPH,Gust SpeedMPH,PrecipitationIn,Events,Conditions,WindDirDegrees,DateUTC
12:53 AM,52.0,50.0,93,30.16,10.0,Calm,Calm,-,N/A,,Clear,0,2012-10-22 04:53:00
1:53 AM,52.0,50.0,93,30.16,10.0,Calm,Calm,-,N/A,,Clear,0,2012-10-22 05:53:00
2:53 AM,50.0,50.0,100,30.16,10.0,Calm,Calm,-,N/A,,Clear,0,2012-10-22 06:53:00
3:53 AM,50.0,48.9,96,30.17,10.0,Calm,Calm,-,N/A,,Partly Cloudy,0,2012-10-22 07:53:00
4:15 AM,51.8,48.2,88,30.18,10.0,Calm,Calm,-,N/A,,Mostly Cloudy,0,2012-10-22 08:15:00
4:53 AM,52.0,50.0,93,30.17,10.0,Calm,Calm,-,N/A,,Mostly Cloudy,0,2012-10-22 08:53:00
5:53 AM,52.0,50.0,93,30.18,10.0,Calm,Calm,-,N/A,,Mostly Cloudy,0,2012-10-22 09:53:00
6:53 AM,52.0,50.0,93,30.20,10.0,Calm,Calm,-,N/A,,Mostly Cloudy,0,2012-10-22 10:53:00
7:53 AM,53.1,51.1,93,30.22,10.0,Calm,Calm,-,N/A,,Mostly Cloudy,0,2012-10-22 11:53:00
8:53 AM,54.0,51.1,90,30.23,10.0,Calm,Calm,-,N/A,,Mostly Cloudy,0,2012-10-22 12:53:00
9:53 AM,59.0,54.0,83,30.25,10.0,Calm,Calm,-,N/A,,Mostly Cloudy,0,2012-10-22 13:53:00
10:53 AM,63.0,55.0,75,30.24,10.0,Calm,Calm,-,N/A,,Mostly Cloudy,0,2012-10-22 14:53:00
11:53 AM,66.0,55.0,68,30.23,10.0,WNW,3.5,-,N/A,,Mostly Cloudy,300,2012-10-22 15:53:00
12:53 PM,69.8,55.4,60,30.23,10.0,Calm,Calm,-,N/A,,Scattered Clouds,0,2012-10-22 16:53:00
1:53 PM,73.9,54.0,50,30.18,10.0,Calm,Calm,-,N/A,,Scattered Clouds,0,2012-10-22 17:53:00
2:53 PM,75.9,52.0,43,30.15,10.0,SSW,4.6,-,N/A,,Scattered Clouds,200,2012-10-22 18:53:00
3:53 PM,78.1,52.0,40,30.13,10.0,Calm,Calm,-,N/A,,Scattered Clouds,0,2012-10-22 19:53:00
4:53 PM,79.0,52.0,39,30.12,10.0,SE,3.5,-,N/A,,Scattered Clouds,130,2012-10-22 20:53:00
5:53 PM,78.1,52.0,40,30.12,10.0,Calm,Calm,-,N/A,,Scattered Clouds,0,2012-10-22 21:53:00
6:53 PM,73.9,54.0,50,30.13,10.0,Calm,Calm,-,N/A,,Scattered Clouds,0,2012-10-22 22:53:00
7:53 PM,68.0,57.9,70,30.15,10.0,Calm,Calm,-,N/A,,Scattered Clouds,0,2012-10-22 23:53:00
8:53 PM,64.4,59.0,83,30.17,10.0,Calm,Calm,-,N/A,,Scattered Clouds,0,2012-10-23 00:53:00
9:53 PM,62.1,57.9,86,30.16,10.0,Calm,Calm,-,N/A,,Partly Cloudy,0,2012-10-23 01:53:00
10:53 PM,60.1,57.0,90,30.16,10.0,Calm,Calm,-,N/A,,Partly Cloudy,0,2012-10-23 02:53:00
11:53 PM,57.9,55.9,93,30.16,10.0,Calm,Calm,-,N/A,,Clear,0,2012-10-23 03:53:00